Simultaneous Nadir Overpasses (SNOs) Predictions

Prediction of SNOs between GOES-14 and NOAA-20 Satellite Orbit:

Table of predicted SNOs for the next 14.0 days since TLE Epoch: 9/21/2024
Index Date Time (GOES-14) GOES-14 Lat,Lon NOAA-20 Lat,Lon Distance(km) Time Diff (sec)
1 09/22/2024 08:44:00 -0.04,-108.47 0.24,-109.67 137.00 80
2 09/23/2024 08:22:32 -0.04,-108.47 -0.76,-105.12 380.52 80
3 09/24/2024 20:44:24 0.05,-108.42 -0.40,-110.42 227.40 80
4 09/25/2024 20:28:17 0.05,-108.43 0.60,-105.88 290.66 80
5 09/27/2024 08:50:01 -0.06,-108.49 0.56,-111.14 301.84 80
6 09/28/2024 08:28:34 -0.06,-108.50 -0.45,-106.59 216.02 80
7 09/29/2024 20:50:26 0.06,-108.45 -0.69,-111.89 392.00 80
8 09/30/2024 20:34:19 0.06,-108.46 0.33,-107.35 126.64 80
9 10/02/2024 08:56:02 -0.06,-108.53 0.88,-112.60 464.28 80
10 10/03/2024 08:34:34 -0.06,-108.54 -0.15,-108.06 54.00 80
